Other Public Products
Issued by NWS Charleston, SC

Current Version | Previous Version | Graphics & Text | Print | Product List | Glossary On
Versions: 1 2 3 4 5 6 7 8 9 10 11 12 13 14 15 16 17 18 19 20 21 22 23 24 25 26 27 28 29 30 31 32 33 34 35 36 37 38 39 40 41 42 43 44 45 46 47 48 49 50
000
FPUS82 KCHS 240027
OPUCHS

TEST...KCHS/KSAV Gateway Observations...TEST
National Weather Service Charleston SC
800 PM EDT SAT SEP 23 2017

NOTE: "fair" indicates few or no clouds below 12,000 feet with no
significant weather and/or obstructions to visibility.

SCZ050-WAZ558-NCZ071-TXZ119-213-PAZ071-DCZ001-FLZ074-172-MI076-
NYZ176-178-MAZ016-IL014-TNZ027-NJZ106-GAZ044-MD014-240100-

...Gateway Observations for Charleston International...

CITY           SKY/WX    TMP DP  RH WIND       PRES   REMARKS
Chas Airport   PTCLDY    78  68  71 E6        30.00R
6HR MIN TEMP:  78; 6HR MAX TEMP:  87;

Seattle        MOSUNNY   67  51  56 W6        30.09S
6HR MIN TEMP:  59; 6HR MAX TEMP:  68;

Charlotte      PTCLDY    81  62  52 VRB7      30.05R
6HR MIN TEMP:  78; 6HR MAX TEMP:  89;

Dallas DFW     PTCLDY    90  64  42 SE12      29.84S HX  91
6HR MIN TEMP:  89; 6HR MAX TEMP:  96;

Dallas Love    PTCLDY    90  63  40 SE13      29.85S HX  91
6HR MIN TEMP:  88; 6HR MAX TEMP:  95;

Philladelphia  CLEAR     79  57  46 CALM      30.04R
6HR MIN TEMP:  79; 6HR MAX TEMP:  88;

Wash National  CLEAR     81  61  50 N5        30.06R
6HR MIN TEMP:  80; 6HR MAX TEMP:  89;

Baltimore      CLEAR     75  60  59 VRB5      30.06R
6HR MIN TEMP:  74; 6HR MAX TEMP:  89;

Miami          CLOUDY    84  77  79 NE9       29.82R HX  94
6HR MIN TEMP:  80; 6HR MAX TEMP:  91; 6HR PCP:  0.39;

Detroit        CLEAR     80  63  55 SE3       30.12R
6HR MIN TEMP:  80; 6HR MAX TEMP:  91;

Newark         CLEAR     78  52  40 N8        30.03R
6HR MIN TEMP:  77; 6HR MAX TEMP:  90;

Laguardia      CLEAR     81  52  36 N5        30.02R
6HR MIN TEMP:  81; 6HR MAX TEMP:  86;

J F K          CLEAR     79  52  38 N5        30.03R
6HR MIN TEMP:  79; 6HR MAX TEMP:  88;

Boston Logan   FOG       61  61 100 NE3       30.03R VSB 1/4
6HR MIN TEMP:  61; 6HR MAX TEMP:  73;

Ft. Lauderdale MOCLDY    83  76  79 NE8       29.81R HX  91
Chicago O`Hare CLEAR     86  64  47 E9        30.03S
6HR MIN TEMP:  86; 6HR MAX TEMP:  95;

Chicago Midway CLEAR     87  66  49 E8        30.03S
6HR MIN TEMP:  87; 6HR MAX TEMP:  95;

Houston Bush   PTCLDY    82  72  69 E7        29.88S
Houston Hobby  PTCLDY    86  69  56 SE8       29.87R HX  90
6HR MIN TEMP:  86; 6HR MAX TEMP:  91;

Nashville      PTCLDY    83  68  60 NE7       30.02R
6HR MIN TEMP:  83; 6HR MAX TEMP:  92;

Atlanta        PTCLDY    82  63  52 SE5       30.02S
6HR MIN TEMP:  82; 6HR MAX TEMP:  87;


$$

GAZ044-118-TXZ119-213-NCZ071-DCZ001-MDZ014-506-PAZ021-071-NJZ106-
NYZ176-178-MAZ106-OHZ011-021-055-MIZ076-KYZ091-ILZ014-INZ047-
MNZ060-ONZ431-240100-

...Gateway Observations for Savannah International...

CITY           SKY/WX    TMP DP  RH WIND       PRES   REMARKS
Savannah Arpt  PTCLDY    79  69  71 E7        29.99S
6HR MIN TEMP:  79; 6HR MAX TEMP:  88;

Atlanta        PTCLDY    82  63  52 SE5       30.02S
6HR MIN TEMP:  82; 6HR MAX TEMP:  87;

Charlotte      PTCLDY    81  62  52 VRB7      30.05R
6HR MIN TEMP:  78; 6HR MAX TEMP:  89;

Dallas DFW     PTCLDY    90  64  42 SE12      29.84S HX  91
6HR MIN TEMP:  89; 6HR MAX TEMP:  96;

Houston Bush   PTCLDY    82  72  69 E7        29.88S
Wash National  CLEAR     81  61  50 N5        30.06R
6HR MIN TEMP:  80; 6HR MAX TEMP:  89;

Wash Dulles    CLEAR     74  64  71 W6        30.07R
6HR MIN TEMP:  74; 6HR MAX TEMP:  86;

Baltimore      CLEAR     75  60  59 VRB5      30.06R
6HR MIN TEMP:  74; 6HR MAX TEMP:  89;

Philadelphia   CLEAR     79  57  46 CALM      30.04R
6HR MIN TEMP:  79; 6HR MAX TEMP:  88;

Newark         CLEAR     78  52  40 N8        30.03R
6HR MIN TEMP:  77; 6HR MAX TEMP:  90;

Laguardia      CLEAR     81  52  36 N5        30.02R
6HR MIN TEMP:  81; 6HR MAX TEMP:  86;

J F K          CLEAR     79  52  38 N5        30.03R
6HR MIN TEMP:  79; 6HR MAX TEMP:  88;

Boston         FOG       61  61 100 NE3       30.03R VSB 1/4
6HR MIN TEMP:  61; 6HR MAX TEMP:  73;

Pittsburg      PTCLDY    82  54  37 NE3       30.13R
6HR MIN TEMP:  82; 6HR MAX TEMP:  89;

Akron          PTCLDY    77  59  53 NE5       30.13S
6HR MIN TEMP:  77; 6HR MAX TEMP:  91;

Cleveland      CLEAR     80  54  40 NE5       30.13S
6HR MIN TEMP:  79; 6HR MAX TEMP:  91;

Cincinnati     PTCLDY    80  67  64 S3        30.07S
6HR MIN TEMP:  80; 6HR MAX TEMP:  90;

Columbus       CLEAR     74  62  65 CALM      30.08S
Detroit        CLEAR     80  63  55 SE3       30.12R
6HR MIN TEMP:  80; 6HR MAX TEMP:  91;

Chicago O`Hare CLEAR     86  64  47 E9        30.03S
6HR MIN TEMP:  86; 6HR MAX TEMP:  95;

Minneapolis    CLOUDY    84  71  65 SE8       29.91S
6HR MIN TEMP:  84; 6HR MAX TEMP:  90;

Indianapolis   PTCLDY    82  64  54 SE7       30.06R
6HR MIN TEMP:  82; 6HR MAX TEMP:  91;

Toronto Canada CLEAR     82  64  54 S2        30.07S

$$




USA.gov is the U.S. government's official web portal to all federal, state and local government web resources and services.